Flag for U.S.A. Weather past 2 weeks in Hudson, Wisconsin, U.S.A.

Now
71 °F

Overcast.


Feels Like: 71 °F
Forecast: 65 / 80 °F
Wind: 15 mph from South

Location: St. Paul Downtown Holman Field

Current Time: Jul 25, 2014 at 12:04:57 PM

Latest Report: Jul 25, 2014 at 11:01 AM


Visibility: 10 mi

Pressure: 29.81 "Hg

Humidity: 81%

Dew point: 65 °F

Location of HudsonLocation

Historic Weather in Hudson — Graph

°F

Hudson temperature yesterday

Maximum temperature yesterday: 79 °F (at 12:53 PM)
Minimum temperature yesterday: 62 °F (at 4:53 AM)
Average temperature yesterday: 72 °F

Past Weeks' High & Low Weather Summary

 TemperatureHumidityPressure
High89 °F (Jul 21, 3:53 PM)97% (Jul 11, 8:53 AM)30.24 "Hg (Jul 11, 8:53 AM)
Low53 °F (Jul 16, 5:53 AM)37% (Jul 16, 2:53 PM)29.76 "Hg (Jul 24, 5:53 PM)
Average71 °F69%29.97 "Hg
* Reported Jul 10 11:53 AM — Jul 25 11:01 AM, Hudson, Weather by CustomWeather, © 2014

Note: Actual official high and low records may vary slightly from our data, if they occured in-between our weather recording intervals... More about our weather records

Advertising

Hudson weather history for previous 24 hours

 ConditionsComfort  
Time TempWeatherWind HumidityBarometerVisibility
11:01 AM
Jul 25
71 °FOvercast.15 mph81%29.81 "Hg10 mi
9:53 AM68 °FOvercast.8 mph87%29.82 "Hg10 mi
8:53 AM66 °FMore clouds than sun.6 mph93%29.84 "Hg10 mi
7:53 AM65 °FCloudy.6 mph94%29.83 "Hg10 mi
6:53 AM64 °FLight rain. Partly sunny.15 mph94%29.79 "Hg10 mi
6:00 AM64 °FRain. Fog.14 mph94%29.83 "Hg5 mi
4:53 AM68 °FPassing clouds.12 mph76%29.86 "Hg10 mi
3:53 AM68 °FPassing clouds.13 mph76%29.85 "Hg10 mi
2:53 AM68 °FOvercast.13 mph73%29.87 "Hg10 mi
1:53 AM68 °FClear.13 mph73%29.84 "Hg10 mi
12:53 AM69 °FClear.6 mph73%29.91 "Hg10 mi
11:53 PM
Jul 24
70 °FClear.8 mph68%29.92 "Hg10 mi
10:53 PM70 °FClear.8 mph71%29.94 "Hg10 mi
9:53 PM73 °FPassing clouds.7 mph64%29.93 "Hg10 mi
8:53 PM74 °FOvercast.8 mph62%29.90 "Hg10 mi
7:53 PM75 °FMostly cloudy.8 mph62%29.90 "Hg10 mi
6:53 PM78 °FPassing clouds.9 mph54%29.91 "Hg10 mi
5:53 PM76 °FPassing clouds.31 mph56%29.76 "Hg10 mi
4:53 PM77 °FSunny.9 mph54%29.96 "Hg10 mi
3:53 PM78 °FScattered clouds.9 mph46%30.04 "Hg10 mi
2:53 PM79 °FScattered clouds.10 mph45%30.04 "Hg10 mi
1:53 PM79 °FPartly sunny.9 mph45%30.02 "Hg10 mi
12:53 PM79 °FScattered clouds.9 mph47%30.06 "Hg10 mi
Weather by CustomWeather, © 2014

See weather overviewHow to use our weather pages